Regional Weather Roundup
Issued by NWS Portland, ME

Current Version | Previous Version | Text Only | Print | Product List | Glossary On
Versions: 1 2 3 4 5 6 7 8 9 10 11 12 13 14 15 16 17 18 19 20 21 22 23 24 25 26 27 28 29 30 31 32 33 34 35 36 37 38 39 40 41 42 43 44 45 46 47 48 49 50
000
ASUS41 KGYX 230010
RWRGYX
WEATHER ROUNDUP FOR MAINE AND NEW HAMPSHIRE
NATIONAL WEATHER SERVICE GRAY ME
800 PM EDT WED OCT 22 2014

MEZ002-005-006-010-012-015-018-020-021-024-026-027-029-230100-
MAINE

CITY           SKY/WX    TMP DP  RH WIND       PRES   REMARKS
PORTLAND       CLOUDY    50  46  86 NE20G32   30.00F
6HR MIN TEMP:  49; 6HR MAX TEMP:  50; 6HR PCP:  0.15;

SANFORD        CLOUDY    46  41  81 NE23G32   30.00S
BAR HARBOR     CLOUDY    46  46 100 NE21G28   30.09F
WISCASSET      CLOUDY    48  45  89 NE9G25    30.06F
6HR MIN TEMP:  48; 6HR MAX TEMP:  49; 6HR PCP:  0.23;

ROCKLAND       CLOUDY    48  45  87 NE23G36   30.05F
FRYEBURG       CLOUDY    47  43  86 NE14G28   30.08F
6HR MIN TEMP:  46; 6HR MAX TEMP:  51; 6HR PCP:  0.20;

LEWISTONAUBURN CLOUDY    46  41  81 NE18G29   30.06F
AUGUSTA        CLOUDY    45  42  89 N18G30    30.10F
6HR MIN TEMP:  45; 6HR MAX TEMP:  47; 6HR PCP:  0.17;

WATERVILLE     CLOUDY    46  39  76 NE16G24   30.10F
BANGOR         LGT RAIN  46  44  93 NE14      30.16F FOG
6HR MIN TEMP:  46; 6HR MAX TEMP:  48; 6HR PCP:  0.22;

GREENVILLE       N/A     44  37  76 NE8       30.18F
6HR MIN TEMP:  44; 6HR MAX TEMP:  50; 6HR PCP:  0.06;

MILLINOCKET    LGT RAIN  45  40  82 NE9       30.25F
6HR MIN TEMP:  45; 6HR MAX TEMP:  54; 6HR PCP:  0.08;

HOULTON        LGT RAIN  43  40  89 NE12      30.27F
6HR MIN TEMP:  43; 6HR MAX TEMP:  53; 6HR PCP: TRACE;

PRESQUE ISLE   CLOUDY    46  34  61 NE6       30.31S
6HR MIN TEMP:  46; 6HR MAX TEMP:  52;

FRENCHVILLE    CLOUDY    42  32  67 NE10G21   30.33F
6HR MIN TEMP:  42; 6HR MAX TEMP:  48;

CARIBOU        CLOUDY    46  35  65 NE9       30.31F
6HR MIN TEMP:  46; 6HR MAX TEMP:  51;

$$

NHZ002-005-008-009-011-012-014-230100-
NEW HAMPSHIRE

CITY           SKY/WX    TMP DP  RH WIND       PRES   REMARKS
PORTSMOUTH     LGT RAIN  49  46  92 NE20G35   29.93F FOG
ROCHESTER      LGT RAIN  47  45  93 NE13G30   29.97F FOG
6HR MIN TEMP:  47; 6HR MAX TEMP:  49; 6HR PCP:  0.10;

NASHUA         LGT RAIN  48  46  93 NE10G18   29.95S FOG
MANCHESTER     DRIZZLE   48  44  86 N16G30    29.95S
6HR MIN TEMP:  48; 6HR MAX TEMP:  51; 6HR PCP:  0.04;

CONCORD        CLOUDY    47  44  90 N10G22    29.97F
6HR MIN TEMP:  47; 6HR MAX TEMP:  50; 6HR PCP:  0.06;

LACONIA        CLOUDY    46  43  87 NE18G25   30.01F
PLYMOUTH       CLOUDY    49  49  99 CALM      30.02F
BERLIN         LGT RAIN  46  43  89 N10G17    30.12F
6HR MIN TEMP:  46; 6HR MAX TEMP:  51; 6HR PCP:  0.11;

WHITEFIELD     LGT RAIN  47  43  86 NE9       30.08F
6HR MIN TEMP:  47; 6HR MAX TEMP:  53; 6HR PCP:  0.01;

JAFFREY        LGT RAIN  45  44  97 N9G16     29.94F FOG
6HR MIN TEMP:  45; 6HR MAX TEMP:  47; 6HR PCP:  0.29;

LEBANON        LGT RAIN  48  44  86 N10       30.03S FOG
6HR MIN TEMP:  48; 6HR MAX TEMP:  53; 6HR PCP:  0.09;

MT WASHINGTON  NOT AVBL
$$

VTZ005-007-008-230100-
VERMONT

CITY           SKY/WX    TMP DP  RH WIND       PRES   REMARKS
ST JOHNSBURY     N/A     49  42  77 MISG      30.09F
MONTPELIER     LGT RAIN  48  42  80 N9        30.13F
BURLINGTON     LGT RAIN  52  41  66 N10       30.12F
$$

MAZ007-012-024-CTZ003-RIZ002-NYZ038-NYZ072-230100-
SOUTHERN NEW ENGLAND AND NY

CITY           SKY/WX    TMP DP  RH WIND       PRES   REMARKS
BOSTON         RAIN      52  50  93 NE32G45   29.85F FOG
WORCESTER      LGT RAIN  45  44  97 NE21G32   29.85F FOG
NANTUCKET      CLOUDY    60  59  96 NE20G33   29.65F
PROVIDENCE     LGT RAIN  53  51  93 N26G32    29.74F
HARTFORD       LGT RAIN  51  46  83 N20G30    29.84F
ALBANY         LGT RAIN  51  45  79 N10G28    29.99F
NEW YORK CITY  LGT RAIN  53  49  86 N17G26    29.77F
$$

ANZ081-ANZ082-ANZ150-NHZ014-MEZ023>029-230100-
COASTAL MARINE OBSERVATIONS

STATION/POSITION TIME  TEMP    WIND        PRES    WAVE
                       AIR SEA DIR/SP/G            HT/PER
                 (UTC) (F)     (DEG/KT/KT) (MB)    (FT/S)
MOUNT DESERT ROC 0000   51                   N/A
MATINICUS ROCK   0000           50/ 40/ 45 1015.0F
PORTLAND WX BUOY 2350   51 54   40/ 27/ 37 1014.4F  11/11
WELLS            2300   49 50   40/ 19/ 27 1014.8F
ISLE OF SHOALS   0000   50      40/ 38/ 50 1011.6R
JEFFREYS LEDGE   2321      55                N/A    20/10
CASHES LEDGE BUO 2350   53 54   50/ 33/ 43 1011.5F  19/11
$$

.............KEY..............
   WCI - WIND CHILL
   TC  - TEMPERATURE IN CELSIUS
   VSB - VISIBILITY IN MILES
   HX  - HEAT INDEX
   FAIR- INDICATES FEW OR NO CLOUDS BELOW 12,000 FT, WITH NO
         SIGNIFICANT WEATHER AND/OR OBSTRUCTIONS TO VISIBILITY.





USA.gov is the U.S. government's official web portal to all federal, state and local government web resources and services.